Location: Beadle
(51.4667°N, 109.0000°W)
Time: 05:23:09
(UTC+00:00)

Altair - Pass Details

Date: 02 June 2022
Orbit: 1501 x 1682 km, 47.2° (Epoch: 30 June)

Event Time Altitude Azimuth Distance (km) Brightness Sun altitude
Rises 04:23:53 0° 288° (WNW) 4,922 11.2 -7.5°
Reaches altitude 10° 04:27:31 10° 278° (W) 3,942 10.4 -7.8°
Maximum altitude 04:35:51 31° 223° (SW) 2,662 8.7 -8.6°
Drops below altitude 10° 04:44:09 10° 167° (SSE) 3,916 9.0 -9.4°
Enters shadow 04:44:44 - 165° (SSE) 4,066 9.1 -9.4°
Sets 04:47:46 0° 157° (SSE) 4,884 - -9.7°
